Location: Maiden
(35.5760°N, 81.2120°W)
Time: 21:18:37
(UTC-04:00)

Tiangong 2 - Visible Passes

Search period start: 20 May 2018 00:00
Search period end: 30 May 2018 00:00
Orbit: 382 x 386 km, 42.8° (Epoch: 20 May)

Date Brightness Start Highest point End Pass type
(mag) Time Alt. Az. Time Alt. Az. Time Alt. Az.
20 May 2.6 04:23:59 26° SE 04:23:59 26° SE 04:25:33 10° SE visible
20 May 2.7 22:28:05 10° WSW 22:29:43 28° WSW 22:29:43 28° WSW visible
21 May 1.2 21:28:27 10° SW 21:31:29 48° SSE 21:34:27 11° ENE visible
21 May 3.6 23:05:25 10° W 23:06:45 20° WNW 23:06:45 20° WNW visible
22 May 2.0 22:05:20 10° W 22:08:24 49° NNW 22:10:49 15° NE visible
22 May 4.6 23:43:02 10° WNW 23:43:05 10° WNW 23:43:05 10° WNW visible
23 May 1.1 21:05:26 10° WSW 21:08:35 87° NNW 21:11:44 10° ENE visible
23 May 3.3 22:42:54 10° WNW 22:45:35 25° N 22:46:39 20° NNE visible
24 May 2.8 21:42:43 10° W 21:45:37 32° NNW 21:48:30 10° NE visible
24 May 3.9 23:20:24 10° NW 23:22:07 19° NNW 23:22:07 19° NNW visible
25 May 3.5 22:20:20 10° WNW 22:22:51 22° N 22:25:08 11° NE visible
26 May 3.3 21:20:10 10° WNW 21:22:50 25° N 21:25:32 10° NE visible
26 May 3.3 22:57:35 10° NW 23:00:10 23° N 23:00:13 23° N visible
27 May 3.5 21:57:38 10° NW 22:00:08 21° N 22:02:37 10° NE visible
27 May 4.1 23:34:23 10° NW 23:35:13 16° NW 23:35:13 16° NW visible
28 May 2.8 22:34:37 10° NW 22:37:24 27° NNE 22:37:58 25° NNE visible
29 May 3.2 21:34:47 10° NW 21:37:23 23° N 21:39:57 10° ENE visible
29 May 3.3 23:11:21 10° WNW 23:12:53 25° NW 23:12:53 25° NW visible
